Location: Altleiningen
(49.5078°N, 8.0741°E)
Time: 20:55:04
(UTC+00:00)

USA 290 - Pass Details

Date: 14 June 2025
Orbit: 392 x 417 km, 73.6° (Epoch: 20 June)

Event Time Altitude Azimuth Distance (km) Brightness Sun altitude
Exits shadow 22:10:29 19° 219° (SW) 1,013 3.9 -15.2°
Maximum altitude 22:12:33 61° 296° (WNW) 458 2.6 -15.3°
Drops below altitude 10° 22:15:44 10° 18° (NNE) 1,460 5.8 -15.4°
Sets 22:17:48 0° 22° (NNE) 2,328 6.9 -15.5°
